Flag for USA

Past Weather in Seattle, Washington, USA — Yesterday and Last 2 Weeks

Now
57 °F

Mostly cloudy.


Feels Like: 55 °F
Forecast: 62 / 53 °F
Wind: 8 mph from South

Location: Seattle Boeing Field
Current Time: Sep 25, 2020 at 11:36:26 pm
Latest Report: Sep 25, 2020 at 11:08 pm
Visibility: 10 mi
Pressure29.95 "Hg
Humidity: 74%
Dew Point: 49 °F
Location of SeattleLocation

Past Weather in Seattle — Graph

°F

Seattle Temperature Yesterday

Maximum temperature yesterday: 65 °F (at 4:53 pm)
Minimum temperature yesterday: 59 °F (at 12:53 pm)
Average temperature yesterday: 61 °F

High & Low Weather Summary for the Past Weeks

 TemperatureHumidityPressure
High76 °F (Sep 11, 4:53 pm)100% (Sep 15, 1:53 am)30.11 "Hg (Sep 15, 1:53 am)
Low51 °F (Sep 13, 5:53 am)36% (Sep 11, 2:53 pm)29.68 "Hg (Sep 25, 9:53 am)
Average63 °F77%29.96 "Hg
* Reported Sep 10 9:53 pm — Sep 25 9:53 pm, Seattle. Weather by CustomWeather, © 2020

Note: Actual official high and low records may vary slightly from our data, if they occured in-between our weather recording intervals... More about our weather records

Seattle Weather History for the Previous 24 Hours

Scroll right to see more
 ConditionsComfort  
Time TempWeatherWind HumidityBarometerVisibility
9:53 pm
Fri, Sep 25
56 °FPassing clouds.9 mph75%29.94 "Hg10 mi
8:53 pm57 °FClear.6 mph74%29.92 "Hg10 mi
7:53 pm60 °FPartly cloudy.No wind65%29.89 "Hg10 mi
6:53 pm60 °FPartly sunny.8 mph67%29.87 "Hg10 mi
5:53 pm63 °FBroken clouds.8 mph63%29.85 "Hg10 mi
4:53 pm63 °FPassing clouds.10 mph63%29.82 "Hg10 mi
3:53 pm63 °FBroken clouds.14 mph63%29.79 "Hg10 mi
2:53 pm63 °FCloudy.10 mph75%29.76 "Hg10 mi
1:53 pm63 °FBroken clouds.13 mph81%29.72 "Hg10 mi
1:17 pm61 °FFog.16 mph87%29.70 "Hg6 mi
12:58 pm61 °FFog.15 mph87%29.70 "Hg2 mi
12:21 pm60 °FLight rain. Fog.12 mph86%29.70 "Hg2 mi
11:53 am61 °FMostly cloudy.17 mph83%29.69 "Hg10 mi
10:53 am59 °FLight rain. Mostly cloudy.8 mph84%29.68 "Hg10 mi
9:53 am57 °FLight rain. Fog.8 mph87%29.68 "Hg2 mi
9:26 am56 °FRain. Fog.5 mph90%29.68 "Hg1 mi
9:01 am56 °FRain. Fog.8 mph90%29.69 "Hg2 mi
7:53 am57 °FLight rain. Overcast.16 mph83%29.70 "Hg7 mi
6:53 am57 °FLight rain. Overcast.14 mph87%29.71 "Hg10 mi
5:53 am57 °FLight rain. Overcast.10 mph87%29.73 "Hg10 mi
4:53 am57 °FLight rain. Overcast.9 mph83%29.75 "Hg10 mi
3:53 am58 °FLight rain. Overcast.9 mph78%29.78 "Hg10 mi
2:53 am58 °FLight rain. Passing clouds.10 mph78%29.81 "Hg10 mi
1:53 am58 °FPassing clouds.10 mph81%29.84 "Hg10 mi
12:53 am58 °FPassing clouds.9 mph81%29.87 "Hg10 mi
11:53 pm
Thu, Sep 24
59 °FPartly cloudy.9 mph81%29.89 "Hg10 mi
Weather by CustomWeather, © 2020

See weather overview